• In Hungary
  • List of Countries
  • For 7 days
  • Water Temperature
  • Satellite Maps
  • Weather Map
  • News
  • Weather Widgets
  • user-avatar
    Login

    Hourly Weather Grimbergen

    Today, 15 November, Thursday

    Time Temperature Precipitation Wind Pressure Humidity
    00:00 +7°C° 0 mm 3 mps 767 mmHg 79%
    01:00 +7°C° 0 mm 3 mps 766 mmHg 80%
    02:00 +7°C° 0 mm 3 mps 766 mmHg 80%
    03:00 +5°C° 0 mm 3 mps 766 mmHg 81%
    04:00 +6°C° 0 mm 2 mps 766 mmHg 80%
    05:00 +6°C° 0 mm 2 mps 766 mmHg 79%
    06:00 +6°C° 0 mm 2 mps 766 mmHg 79%
    07:00 +7°C° 0 mm 2 mps 766 mmHg 75%
    08:00 +8°C° 0 mm 2 mps 766 mmHg 72%
    09:00 +9°C° 0 mm 2 mps 766 mmHg 68%
    10:00 +10°C° 0 mm 2 mps 766 mmHg 64%
    11:00 +13°C° 0 mm 2 mps 766 mmHg 61%
    12:00 +14°C° 0 mm 2 mps 766 mmHg 57%
    13:00 +14°C° 0 mm 2 mps 766 mmHg 60%
    14:00 +13°C° 0 mm 2 mps 766 mmHg 63%
    15:00 +13°C° 0 mm 2 mps 766 mmHg 66%
    16:00 +12°C° 0 mm 2 mps 766 mmHg 69%
    17:00 +10°C° 0 mm 2 mps 766 mmHg 71%
    18:00 +9°C° 0 mm 2 mps 766 mmHg 74%
    19:00 +8°C° 0 mm 2 mps 766 mmHg 74%
    20:00 +7°C° 0 mm 2 mps 766 mmHg 75%
    21:00 +7°C° 0 mm 2 mps 766 mmHg 75%
    22:00 +7°C° 0 mm 2 mps 766 mmHg 75%
    23:00 +6°C° 0 mm 2 mps 767 mmHg 76%

    Tomorrow, 16 November, Friday

    Time Temperature Precipitation Wind Pressure Humidity
    00:00 +6°C° 0 mm 2 mps 767 mmHg 77%
    01:00 +6°C° 0 mm 2 mps 767 mmHg 78%
    02:00 +5°C° 0 mm 2 mps 767 mmHg 79%
    03:00 +5°C° 0 mm 2 mps 767 mmHg 80%
    04:00 +5°C° 0 mm 2 mps 767 mmHg 80%
    05:00 +5°C° 0 mm 2 mps 767 mmHg 80%
    06:00 +5°C° 0 mm 2 mps 767 mmHg 81%
    07:00 +5°C° 0 mm 2 mps 767 mmHg 77%
    08:00 +6°C° 0 mm 2 mps 768 mmHg 74%
    09:00 +7°C° 0 mm 2 mps 768 mmHg 71%
    10:00 +9°C° 0 mm 2 mps 768 mmHg 66%
    11:00 +10°C° 0 mm 2 mps 768 mmHg 61%
    12:00 +13°C° 0 mm 2 mps 768 mmHg 56%
    13:00 +12°C° 0 mm 2 mps 768 mmHg 59%
    14:00 +12°C° 0 mm 2 mps 767 mmHg 62%
    15:00 +12°C° 0 mm 2 mps 767 mmHg 65%
    16:00 +10°C° 0 mm 3 mps 768 mmHg 66%
    17:00 +9°C° 0 mm 3 mps 768 mmHg 67%
    18:00 +8°C° 0 mm 3 mps 768 mmHg 68%
    19:00 +7°C° 0 mm 3 mps 768 mmHg 67%
    20:00 +7°C° 0 mm 3 mps 768 mmHg 66%
    21:00 +5°C° 0 mm 3 mps 769 mmHg 64%
    22:00 +5°C° 0 mm 3 mps 769 mmHg 66%
    23:00 +4°C° 0 mm 3 mps 769 mmHg 67%

    Day after tomorrow, 17 November, Saturday

    Time Temperature Precipitation Wind Pressure Humidity
    00:00 +4°C° 0 mm 3 mps 769 mmHg 68%
    01:00 +4°C° 0 mm 3 mps 769 mmHg 70%
    02:00 +3°C° 0 mm 3 mps 769 mmHg 72%
    03:00 +3°C° 0 mm 3 mps 769 mmHg 74%
    04:00 +3°C° 0 mm 3 mps 769 mmHg 75%
    05:00 +3°C° 0 mm 4 mps 768 mmHg 76%
    06:00 +3°C° 0 mm 4 mps 768 mmHg 77%
    07:00 +3°C° 0 mm 4 mps 768 mmHg 74%
    08:00 +3°C° 0 mm 5 mps 769 mmHg 70%
    09:00 +5°C° 0 mm 5 mps 769 mmHg 67%
    10:00 +6°C° 0 mm 5 mps 769 mmHg 63%
    11:00 +7°C° 0 mm 5 mps 768 mmHg 59%
    12:00 +9°C° 0 mm 6 mps 768 mmHg 55%
    13:00 +8°C° 0 mm 6 mps 768 mmHg 55%
    14:00 +8°C° 0 mm 5 mps 768 mmHg 56%
    15:00 +8°C° 0 mm 5 mps 768 mmHg 57%
    16:00 +7°C° 0 mm 5 mps 768 mmHg 59%
    17:00 +7°C° 0 mm 5 mps 768 mmHg 60%
    18:00 +6°C° 0 mm 5 mps 768 mmHg 61%
    19:00 +5°C° 0 mm 5 mps 768 mmHg 62%
    20:00 +5°C° 0 mm 5 mps 768 mmHg 62%
    21:00 +5°C° 0 mm 5 mps 768 mmHg 62%
    22:00 +3°C° 0 mm 5 mps 768 mmHg 61%
    23:00 +3°C° 0 mm 5 mps 768 mmHg 60%

    18 November, Sunday

    Time Temperature Precipitation Wind Pressure Humidity
    00:00 +3°C° 0 mm 5 mps 768 mmHg 59%
    01:00 +2°C° 0 mm 5 mps 768 mmHg 57%
    02:00 +2°C° 0 mm 5 mps 768 mmHg 55%
    03:00 +2°C° 0 mm 5 mps 768 mmHg 53%
    04:00 +1°C° 0 mm 5 mps 768 mmHg 52%
    05:00 +1°C° 0 mm 5 mps 768 mmHg 52%
    06:00 +1°C° 0 mm 5 mps 768 mmHg 51%
    07:00 +1°C° 0 mm 5 mps 768 mmHg 50%
    08:00 +2°C° 0 mm 5 mps 768 mmHg 49%
    09:00 +3°C° 0 mm 6 mps 769 mmHg 48%
    10:00 +4°C° 0 mm 6 mps 768 mmHg 46%
    11:00 +5°C° 0 mm 6 mps 768 mmHg 45%
    12:00 +7°C° 0 mm 6 mps 768 mmHg 44%
    13:00 +7°C° 0 mm 6 mps 767 mmHg 45%
    14:00 +7°C° 0 mm 5 mps 767 mmHg 46%
    15:00 +6°C° 0 mm 5 mps 767 mmHg 47%
    16:00 +5°C° 0 mm 5 mps 767 mmHg 47%
    17:00 +5°C° 0 mm 5 mps 767 mmHg 47%
    18:00 +3°C° 0 mm 5 mps 766 mmHg 46%
    19:00 +3°C° 0 mm 5 mps 766 mmHg 47%
    20:00 +2°C° 0 mm 5 mps 766 mmHg 48%
    21:00 +2°C° 0 mm 5 mps 767 mmHg 48%
    22:00 +2°C° 0 mm 5 mps 766 mmHg 51%
    23:00 +1°C° 0 mm 5 mps 766 mmHg 54%

    19 November, Monday

    Time Temperature Precipitation Wind Pressure Humidity
    00:00 +1°C° 0 mm 5 mps 766 mmHg 56%
    01:00 +1°C° 0 mm 5 mps 766 mmHg 62%
    02:00 +1°C° 0 mm 5 mps 766 mmHg 67%
    03:00 +1°C° 0 mm 5 mps 766 mmHg 72%
    04:00 +1°C° 0 mm 5 mps 765 mmHg 76%
    05:00 0°C° 0 mm 5 mps 765 mmHg 80%
    06:00 0°C° 0 mm 5 mps 765 mmHg 83%
    07:00 +1°C° 0 mm 6 mps 765 mmHg 80%
    08:00 +2°C° 0 mm 6 mps 765 mmHg 78%
    09:00 +2°C° 0 mm 7 mps 765 mmHg 75%
    10:00 +3°C° 0 mm 7 mps 765 mmHg 71%
    11:00 +4°C° 0 mm 7 mps 764 mmHg 67%
    12:00 +5°C° 0 mm 7 mps 764 mmHg 63%
    13:00 +4°C° 0 mm 6 mps 764 mmHg 64%
    14:00 +4°C° 0 mm 6 mps 763 mmHg 65%
    15:00 +4°C° 0 mm 6 mps 763 mmHg 66%
    16:00 +3°C° 0 mm 6 mps 763 mmHg 68%
    17:00 +3°C° 0 mm 5 mps 763 mmHg 71%
    18:00 +2°C° 0 mm 5 mps 763 mmHg 74%
    19:00 +2°C° 0 mm 5 mps 763 mmHg 78%
    20:00 +1°C° 0 mm 5 mps 763 mmHg 82%
    21:00 +1°C° 0 mm 4 mps 762 mmHg 86%
    22:00 +1°C° 0 mm 4 mps 762 mmHg 89%
    23:00 0°C° 0 mm 4 mps 762 mmHg 91%

    20 November, Tuesday

    Time Temperature Precipitation Wind Pressure Humidity
    00:00 0°C° 0 mm 4 mps 762 mmHg 93%
    01:00 0°C° 0 mm 4 mps 761 mmHg 92%
    02:00 0°C° 0 mm 4 mps 761 mmHg 90%
    03:00 +1°C° 0 mm 5 mps 760 mmHg 88%
    04:00 +1°C° 0 mm 5 mps 760 mmHg 87%
    05:00 +1°C° 0 mm 5 mps 759 mmHg 87%
    06:00 +1°C° 0 mm 5 mps 759 mmHg 86%
    07:00 +1°C° 0 mm 5 mps 759 mmHg 84%
    08:00 +1°C° 0 mm 5 mps 759 mmHg 83%
    09:00 +1°C° 0 mm 5 mps 758 mmHg 81%
    10:00 +2°C° 0 mm 5 mps 758 mmHg 76%
    11:00 +2°C° 0 mm 5 mps 758 mmHg 71%
    12:00 +3°C° 0 mm 5 mps 757 mmHg 66%
    13:00 +3°C° 0 mm 5 mps 757 mmHg 66%
    14:00 +3°C° 0 mm 5 mps 756 mmHg 67%
    15:00 +3°C° 0 mm 5 mps 756 mmHg 67%
    16:00 +2°C° 0 mm 5 mps 756 mmHg 69%
    17:00 +2°C° 0 mm 5 mps 756 mmHg 71%
    18:00 +1°C° 0 mm 5 mps 756 mmHg 73%
    19:00 +1°C° 0 mm 5 mps 756 mmHg 72%
    20:00 +1°C° 0 mm 5 mps 756 mmHg 72%
    21:00 +1°C° 0 mm 4 mps 756 mmHg 71%
    22:00 0°C° 0 mm 4 mps 756 mmHg 73%
    23:00 0°C° 0 mm 4 mps 756 mmHg 75%
    Show more